Location: Unspecified
(44.0704°N, 88.6889°W)
Time: 10:50:41
(UTC+02:00)

Vanguard 2 Rocket - Pass Details

Date: 15 August 2020
Orbit: 554 x 3326 km, 32.9° (Epoch: 22 September)

Event Time Altitude Azimuth Distance (km) Brightness Sun altitude
Rises 03:29:35 0° 259° (W) 3,693 11.0 -5.7°
Reaches altitude 10° 03:31:58 10° 251° (WSW) 3,007 10.3 -6.1°
Maximum altitude 03:38:52 37° 186° (S) 2,280 8.8 -7.2°
Drops below altitude 10° 03:50:16 10° 125° (SE) 4,973 10.0 -9.0°
Enters shadow 03:50:23 10° 125° (SE) 5,003 10.0 -9.1°
